Location: Gollag?dem
(17.0207°N, 80.7261°E)
Time: 11:36:57
(UTC+00:00)

GPS 2-12 Rocket1 - Pass Details

Date: 03 August 2024
Orbit: 572 x 630 km, 20.0° (Epoch: 12 September)

Event Time Altitude Azimuth Distance (km) Brightness Sun altitude
Rises 13:33:13 0° 267° (W) 2,904 7.9 -6.3°
Reaches altitude 10° 13:35:35 10° 269° (W) 1,999 7.0 -6.9°
Maximum altitude 13:40:16 69° 353° (N) 672 3.4 -7.9°
Drops below altitude 10° 13:44:57 10° 77° (ENE) 1,992 5.2 -9.0°
Enters shadow 13:45:38 - 78° (ENE) 2,251 5.4 -9.1°
